Location: Observatoire de Paris
(48.8363°N, 2.3365°E)
Time: 18:37:36
(UTC+01:00)

METEOR M2 - Pass Details

Date: 20 September 2021
Orbit: 820 x 826 km, 98.5° (Epoch: 25 October)

Event Time Altitude Azimuth Distance (km) Brightness Sun altitude
Rises 20:11:28 0° 190° (S) 3,338 ? -13.6°
Reaches altitude 10° 20:14:00 10° 199° (SSW) 2,410 ? -14.0°
Maximum altitude 20:18:52 35° 264° (W) 1,303 ? -14.8°
Drops below altitude 10° 20:23:45 10° 330° (NNW) 2,428 ? -15.5°
Sets 20:26:20 0° 339° (NNW) 3,366 ? -15.9°
